This demonstration page uses our WeatherBlox Daily Observations layout. Learn more.

Left ArrowRight Arrow

Hourly Observations for October 11, 2019

Temp ( °F °C ) Dew Point ( °F °C ) Humidity (%) Winds ( mph kmh ) Pressure ( in mb ) Visibility ( mi km ) Precip ( " mm )
12:53 am 00:53 Clear 59 15 38 3.3 46 46 NNE 22 35 29.89 1012 10 16 0.00 0.00
1:53 am 01:53 Clear 52 11.1 32 0 47 47 NE 25 41 29.96 1014 10 16 0.00 0.00
2:53 am 02:53 Clear 47 8.3 27 -2.8 46 46 NNE 26 43 30.05 1018 10 16 0.00 0.00
3:53 am 03:53 Clear 44 6.7 24 -4.4 45 45 NNE 21 33 30.12 1020 10 16 0.00 0.00
4:53 am 04:53 Clear 43 6.1 23 -5 45 45 NNE 16 26 30.16 1021 10 16 0.00 0.00
5:53 am 05:53 Clear 42 5.6 22 -5.6 45 45 NNE 18 30 30.20 1023 10 16 0.00 0.00
6:53 am 06:53 Clear 40 4.4 22 -5.6 49 49 NNE 13 20 30.24 1024 10 16 0.00 0.00
7:53 am 07:53 Clear 40 4.4 22 -5.6 49 49 N 12 19 30.28 1026 10 16 0.00 0.00
8:53 am 08:53 Sunny 41 5 22 -5.6 47 47 N 16 26 30.32 1027 10 16 0.00 0.00
9:53 am 09:53 Sunny 44 6.7 22 -5.6 41 41 N 13 20 30.35 1028 10 16 0.00 0.00
10:53 am 10:53 Sunny 47 8.3 20 -6.7 34 34 NNE 13 20 30.37 1028 10 16 0.00 0.00
11:53 am 11:53 Sunny 50 10 17 -8.3 27 27 ENE 12 19 30.34 1028 10 16 0.00 0.00
12:53 pm 12:53 Sunny 54 12.2 16 -8.9 22 22 NNE 13 20 30.32 1027 10 16 0.00 0.00
1:53 pm 13:53 Sunny 57 13.9 15 -9.4 19 19 NE 9 15 30.29 1026 10 16 0.00 0.00
2:53 pm 14:53 Sunny 59 15 13 -10.6 16 16 E 8 13 30.27 1025 10 16 0.00 0.00
3:53 pm 15:53 Sunny 60 15.6 13 -10.6 16 16 VRB 6 9 30.24 1024 10 16 0.00 0.00
4:53 pm 16:53 Sunny 62 16.7 14 -10 15 15 E 9 15 30.22 1024 10 16 0.00 0.00
5:53 pm 17:53 Sunny 63 17.2 15 -9.4 15 15 NE 9 15 30.22 1023 10 16 0.00 0.00
6:53 pm 18:53 Sunny 60 15.6 16 -8.9 18 18 E 9 15 30.22 1024 10 16 0.00 0.00
7:53 pm 19:53 Clear 56 13.3 17 -8.3 22 22 ENE 7 11 30.23 1024 10 16 0.00 0.00
8:53 pm 20:53 Clear 52 11.1 17 -8.3 25 25 E 7 11 30.25 1024 10 16 0.00 0.00
9:53 pm 21:53 Clear 49 9.4 17 -8.3 28 28 E 5 7 30.26 1025 10 16 0.00 0.00
10:53 pm 22:53 Clear 47 8.3 18 -7.8 31 31 E 5 7 30.27 1025 10 16 0.00 0.00
11:53 pm 23:53 Clear 45 7.2 17 -8.3 33 33 E 6 9 30.27 1025 10 16 0.00 0.00

Powered by AerisWeather